Current Version              Previous Version:    01  02  03  04  05  06  07  08  09  10  11  12  13  14  15  16  17  18  19  20  21  22  23  24  25  26  27  28  29  30  
   31  32  33  34  35  36  37  38  39  40  41  42  43  44  45  46  47  48  49  50  51  52  53  54  55  56  57  58  59  60  

[Printable]
435
ASUS44 KFWD 252010
RWRTX
NORTH TEXAS HOURLY WEATHER ROUNDUP
NATIONAL WEATHER SERVICE FORT WORTH TX
200 PM CST SUN JAN 25 2015

NOTE: "FAIR" INDICATES FEW OR NO CLOUDS BELOW 12,000 FEET WITH NO
SIGNIFICANT WEATHER AND/OR OBSTRUCTIONS TO VISIBILITY.

TXZ118-119-252100-
DALLAS/FORT WORTH METROPLEX

CITY           SKY/WX    TMP DP  RH WIND       PRES   REMARKS
DFW AIRPORT    MOSUNNY   64  25  22 NW29G37   30.02R
DALLAS LOVE    MOSUNNY   64  26  23 NW23G31   30.02R
FTW MEACHAM    SUNNY     63  26  24 NW22G35   30.04R
DAL-EXECUTIVE  SUNNY     67  23  19 NW26      30.01R
FTW-ALLIANCE   MOSUNNY   63  26  24 NW25G33   30.04R
FTW-SPINKS     SUNNY    N/A N/A N/A NW23G36   30.07R
ARLINGTON      SUNNY     67  22  18 NW22G28   30.03R
GRAND PRAIRIE  SUNNY     64  27  24 NW14G26   30.06R
ADDISON        SUNNY     63  25  23 NW17G32   30.02F
LANCASTER      SUNNY     63  24  22 NW23G31   30.02R
$$

TXZ091>094-102>105-117-120-121-131>134-252100-
NORTH CENTRAL TEXAS

CITY           SKY/WX    TMP DP  RH WIND       PRES   REMARKS
SHRMAN/DENISON SUNNY     61  33  35 NW21G32   30.01F
GAINESVILLE    SUNNY     61  27  28 NW23G31   30.05S
BOWIE          SUNNY     61  26  26 NW24G31   30.06S
BRIDGEPORT     SUNNY     61  32  34 NW15G26   30.09S
DECATUR        SUNNY     60  27  27 NW24G31   30.05F
DENTON         SUNNY     61  26  26 NW23G36   30.03S
MCKINNEY       SUNNY     62  28  27 NW22G32   30.01
GREENVILLE     SUNNY     63  27  25 NW21G31   29.98S
ROCKWALL       SUNNY     62  30  30 NW17G35   29.99S
TERRELL        SUNNY     65  28  24 NW17G26   30.00R
WAXAHACHIE     SUNNY     65  29  25 NW22G28   30.03S
CLEBURNE       SUNNY     66  19  16 NW20G29   30.07R
GRANBURY       SUNNY     66  24  20 NW21G29   30.09R
$$

TXZ083>090-098>101-113>116-127>130-139>142-154-155-252100-
WESTERN NORTH TEXAS

CITY           SKY/WX    TMP DP  RH WIND       PRES   REMARKS
WICHITA FALLS  SUNNY     62  26  25 N25G31    30.08S
WF-KICKAPOO    SUNNY     54  16  22 NW22G33   30.10R
VERNON         SUNNY     64  15  15 N22G29    30.11F
ABILENE        SUNNY     62  28  27 N18       30.17S
ABILENE-DYESS  SUNNY     60  29  30 N20G25    30.16F
BRECKENRIDGE   SUNNY     64  23  20 NW21G30   30.12F
GRAHAM         SUNNY     63  29  28 NW28G33   30.09F
MINERAL WELLS  SUNNY     64  24  21 NW20G31   30.07S
STEPHENVILLE   SUNNY     65  20  18 N23G29    30.12S
COMANCHE       SUNNY     63  29  27 N17G33    30.13S
BROWNWOOD      SUNNY     64  25  22 N21G29    30.14F
COLEMAN        SUNNY     62  33  33 N16       30.15F
$$

TXZ143>147-156>162-174-175-252100-
CENTRAL TEXAS

CITY           SKY/WX    TMP DP  RH WIND       PRES   REMARKS
WACO           SUNNY     67  31  26 N13       30.06S
WACO-TSTC      SUNNY     68  30  24 NW18      30.05S
WACO-MCGREGOR  SUNNY     66  37  34 NW16G23   30.08S
HILLSBORO      SUNNY     67  26  20 NW25      30.05R
CORSICANA      SUNNY     67  31  26 NW20G26   30.03R
MEXIA          SUNNY     66  31  27 NW15G22   30.03S
HEARNE         SUNNY     65  41  41 W9        30.07F
CAMERON        SUNNY     67  39  36 NW9G16    30.07F
TEMPLE         SUNNY     70  30  23 NW13G22   30.06F
KILLEEN        SUNNY     68  26  20 NW20      30.09F
KILLEEN-SKYLRK SUNNY     68  28  22 NW14G23   30.07R
FORT HOOD      SUNNY     68  24  19 MISG      30.08F
GATESVILLE     SUNNY     68  28  22 NW17G24   30.10F
HAMILTON       SUNNY     66  23  19 N28       30.10F
LAMPASAS       SUNNY     68  28  22 N10G20    30.10F
$$

TXZ095>097-106>112-122>126-135>138-148>153-164>167-252100-
EAST TEXAS

CITY           SKY/WX    TMP DP  RH WIND       PRES   REMARKS
PARIS          SUNNY     61  30  31 NW20G38   29.94S
SULPHUR SPRNGS SUNNY     61  31  32 NW23      29.99S
MOUNT PLEASANT MOSUNNY   63  31  30 W21G35    29.95R
GILMER         SUNNY     63  32  31 W14G28    29.92F
MINEOLA        SUNNY     64  28  25 NW13G20   29.96F
TYLER          SUNNY     65  31  28 NW20G28   29.95F
LONGVIEW       SUNNY     65  31  28 W21G36    29.90F
MARSHALL       SUNNY     66  34  30 NW18      29.91F
ATHENS         SUNNY     63  30  29 NW15G24   29.98R
PALESTINE      SUNNY     66  33  29 W18G24    30.00S
JACKSONVILLE   SUNNY     66  28  24 W18G26    29.97R
HENDERSON      SUNNY     65  31  27 NW14G25   29.95R
NACOGDOCHES    SUNNY     66  37  34 NW16G23   29.95R
LUFKIN         SUNNY     70  41  34 W13       29.96S
$$

SUPPLEMENTAL OBSERVATIONS (CENTRAL)

CITY           SKY/WX    TMP DP  RH WIND       PRES   REMARKS
CADDO GRASSLND   N/A     63  28  27 NW14G25     N/A
PAT MAYSE LAKE   N/A     61  30  31 W22         N/A
PALESTINE        N/A     70  34  26 W7G23       N/A
MCGREGOR         N/A     70  28  21 N14G24      N/A
TEMPLE           N/A     70  32  24 NW6         N/A
$$

SUPPLEMENTAL OBSERVATIONS (WEST)

CITY           SKY/WX    TMP DP  RH WIND       PRES   REMARKS
MILLERS CREEK    N/A     64  30  27 N17G28      N/A
POSSUM KINGDOM   N/A     63  23  22 N17G26      N/A
LBJ GRASSLAND    N/A     61  28  29 NW17G29     N/A
GRANBURY         N/A     64  21  19 NW24G30     N/A
HAMBY            N/A     61  28  29 N15G22      N/A
IVIE RESERVOIR   N/A     64  25  22 N16G26      N/A
COLORADO BEND    N/A     66  25  20 N10         N/A
$$

SUPPLEMENTAL OBSERVATIONS (EAST)

CITY           SKY/WX    TMP DP  RH WIND       PRES   REMARKS
CLARKSVILLE      N/A     61  32  33 NW16G30     N/A
TEXARKANA        N/A     63  32  31 NW17G28     N/A
LINDEN           N/A     64  32  29 NW15G23     N/A
GILMER           N/A     64  32  29 NW15G29     N/A
HENDERSON        N/A     66  28  24 NW21G29     N/A
LUFKIN           N/A     70  36  28 MISG        N/A
N SABINE NF      N/A     68  39  34 MISG        N/A
S SABINE NF      N/A     70  41  35 W6          N/A
$$

SUPPLEMENTAL OBSERVATIONS ARE A COLLECTION OF AUTOMATED INSTRUMENTS
THAT ARE MAINTAINED BY A VARIETY OF FEDERAL AND STATE AGENCIES.
CERTAIN ELEMENTS...SUCH AS HUMIDITY VALUES AND SUSTAINED WIND
SPEEDS...MAY BE APPROXIMATED.